Weather reports worldwide

Advertisment
Koivu-Mankkaa, Finland (2985): temperature & dewpoint: 12.08.2017 02:00:00 - 18.08.2017 02:00:00 (EEST)Koivu-Mankkaa, Finland (2985): wind speed: 12.08.2017 02:00:00 - 18.08.2017 02:00:00 (EEST)Koivu-Mankkaa, Finland (2985): wind direction: 12.08.2017 02:00:00 - 18.08.2017 02:00:00 (EEST)Koivu-Mankkaa, Finland (2985): reduced air pressure: 12.08.2017 02:00:00 - 18.08.2017 02:00:00 (EEST)Koivu-Mankkaa, Finland (2985): visibility: 12.08.2017 02:00:00 - 18.08.2017 02:00:00 (EEST)Koivu-Mankkaa, Finland (2985): precipitation: 12.08.2017 02:00:00 - 18.08.2017 02:00:00 (EEST)
Date & Time tt [°C] td [°C] ff [km/h] ff [kn] dd ppp [hPa] vv [km] rr [mm]
18.08.2017 02:00:00 16,9 16,5 3 2 S 1016,1 7 0,0
18.08.2017 01:00:00 17,3 16,7 3 2 NE 1016,1 10 0,0
18.08.2017 00:00:00 17,3 16,6 8 4 WSW 1016,8 11 0,0
17.08.2017 23:00:00 17,2 16,6 10 6 NE 1016,3 12 0,0
17.08.2017 22:00:00 17,3 16,4 4 2 ENE 1017,2 11 0,0
17.08.2017 21:00:00 17,9 16,5 5 3 ESE 1017,5 16 0,0
17.08.2017 20:00:00 19,5 16,3 4 2 NNE 1017,2 21 0,0
17.08.2017 19:00:00 20,2 15,9 6 3 ENE 1017,4 24 0,0
17.08.2017 18:00:00 20,3 15,5 10 5 ESE 1017,9 24 0,0
17.08.2017 17:00:00 21,0 16,3 13 7 ESE 1018,0 25 0,0
17.08.2017 16:00:00 21,4 16,3 10 5 ESE 1018,3 29 0,0
17.08.2017 15:00:00 21,6 16,7 11 6 ENE 1018,6 24 0,0
17.08.2017 14:00:00 21,1 16,7 9 5 NE 1018,9 26 0,0
17.08.2017 13:00:00 20,1 16,7 5 3 ENE 1019,5 22 0,0
17.08.2017 12:00:00 18,8 15,5 8 4 NE 1019,6 20 0,1
17.08.2017 11:00:00 18,2 16,5 3 1 NE 1019,8 20 0,2
17.08.2017 10:00:00 17,5 15,8 6 3 S 1020,3 14 0,2
17.08.2017 09:00:00 17,2 15,8 8 5 E 1019,9 18 0,0
17.08.2017 08:00:00 17,0 14,5 14 8 ESE 1019,9 24 0,0
17.08.2017 07:00:00 16,2 14,9 5 3 E 1019,7 25 0,0
17.08.2017 06:00:00 16,0 15,2 10 6 ENE 1019,4 23 0,0
17.08.2017 05:00:00 15,8 15,3 8 4 ENE 1019,5 16 0,0
17.08.2017 04:00:00 15,9 15,2 6 3 NNE 1019,8 20 0,0
17.08.2017 03:00:00 15,8 14,7 2 1 E 1019,9 23 0,0
17.08.2017 02:00:00 15,9 15,0 4 2 SSW 1020,2 20 0,1
17.08.2017 01:00:00 16,7 14,6 7 4 SSW 1020,4 30 0,0
17.08.2017 00:00:00 16,9 14,4 10 6 S 1020,3 32 0,0
16.08.2017 23:00:00 17,0 14,0 10 5 SSE 1020,2 35 0,0
16.08.2017 22:00:00 16,6 14,0 10 5 SSE 1020,4 30 0,0
16.08.2017 21:00:00 17,4 14,3 9 5 SSE 1020,5 34 0,0
16.08.2017 20:00:00 18,5 14,2 11 6 S 1020,4 34 0,0
16.08.2017 19:00:00 19,0 14,4 13 7 SSE 1020,5 36 0,0
16.08.2017 18:00:00 19,1 14,6 15 8 S 1020,6 30 0,0
16.08.2017 17:00:00 19,7 14,7 14 8 SSE 1020,9 32 0,0
16.08.2017 16:00:00 19,7 14,4 11 6 S 1021,3 34 0,0
16.08.2017 15:00:00 19,1 15,4 7 4 SSE 1021,6 26 0,0
16.08.2017 14:00:00 18,0 14,6 8 4 SE 1022,1 30 0,0
16.08.2017 13:00:00 17,9 13,9 10 6 ESE 1022,3 31 0,0
16.08.2017 12:00:00 18,3 15,1 10 5 SE 1022,6 27 0,0
16.08.2017 11:00:00 17,4 14,6 10 5 SSE 1022,7 30 0,0
16.08.2017 10:00:00 17,3 14,4 8 4 SSE 1022,7 28 0,0
16.08.2017 09:00:00 16,5 14,7 9 5 SSE 1022,7 25 0,0
16.08.2017 08:00:00 15,4 15,2 10 5 SSE 1023,0 21 0,0
16.08.2017 07:00:00 12,2 12,1 10 5 SE 1023,4 19 0,0
16.08.2017 06:00:00 9,9 9,8 10 6 SE 1023,6 19 0,0
16.08.2017 05:00:00 9,9 9,7 9 5 SE 1023,8 10 0,0
16.08.2017 04:00:00 10,8 10,6 9 5 SE 1024,4 13 0,0
16.08.2017 03:00:00 10,4 10,2 5 3 ESE 1024,7 14 0,0
16.08.2017 02:00:00 11,2 11,0 6 4 ESE 1024,6 9 0,0
16.08.2017 01:00:00 11,9 11,5 3 2 N 1024,9 20 0,0
16.08.2017 00:00:00 13,0 12,4 10 6 E 1024,9 28 0,0
15.08.2017 23:00:00 13,8 12,5 10 6 ESE 1025,1 29 0,0
15.08.2017 22:00:00 14,2 12,6 9 5 ESE 1025,4 31 0,0
15.08.2017 21:00:00 15,0 12,6 11 6 SE 1025,8 35 0,0
15.08.2017 20:00:00 16,0 11,8 11 6 SE 1026,1 35 0,0
15.08.2017 19:00:00 17,0 12,0 11 6 SE 1025,9 36 0,0
15.08.2017 18:00:00 17,9 10,8 9 5 SSE 1026,2 33 0,0
15.08.2017 17:00:00 18,9 12,0 10 5 SSE 1026,4 28 0,0
15.08.2017 16:00:00 19,5 8,6 19 10 S 1026,8 35 0,0
15.08.2017 15:00:00 19,1 10,0 14 7 S 1027,2 34 0,0
15.08.2017 14:00:00 18,4 12,0 19 10 S 1027,3 27 0,0
15.08.2017 13:00:00 18,1 12,4 17 9 S 1027,3 36 0,0
15.08.2017 12:00:00 17,6 12,4 19 11 S 1027,6 38 0,0
15.08.2017 11:00:00 17,1 13,3 17 9 S 1027,5 30 0,0
15.08.2017 10:00:00 17,0 12,6 9 5 S 1027,3 34 0,0
15.08.2017 09:00:00 15,9 13,9 7 4 S 1027,1 35 0,0
15.08.2017 08:00:00 13,0 12,9 6 4 SSW 1026,9 18 0,0
15.08.2017 07:00:00 10,1 10,0 5 3 SW 1026,8 18 0,0
15.08.2017 06:00:00 9,8 9,7 8 5 WSW 1026,5 2,5 0,0
15.08.2017 05:00:00 10,5 10,2 9 5 WSW 1026,1 8 0,0
15.08.2017 04:00:00 11,3 11,0 10 6 WSW 1025,8 23 0,0
15.08.2017 03:00:00 11,7 11,1 9 5 WSW 1025,6 28 0,0
15.08.2017 02:00:00 12,0 11,0 10 5 WSW 1025,4 27 0,0
15.08.2017 01:00:00 13,1 11,1 11 6 WSW 1025,0 37 0,0
15.08.2017 00:00:00 13,5 10,0 12 6 WSW 1024,6 35 0,0
14.08.2017 23:00:00 14,7 9,7 13 7 WSW 1024,1 40 0,0
14.08.2017 22:00:00 15,2 9,1 13 7 SW 1023,5 40 0,0
14.08.2017 21:00:00 17,5 8,2 12 7 WSW 1022,8 41 0,0
14.08.2017 20:00:00 19,5 6,0 16 9 W 1022,0 35 0,0
14.08.2017 19:00:00 20,1 5,9 17 9 W 1021,6 40 0,0
14.08.2017 18:00:00 19,9 10,3 18 10 SW 1021,4 31 0,0
14.08.2017 17:00:00 21,0 11,0 23 12 SW 1021,1 34 0,0
14.08.2017 16:00:00 20,5 10,3 23 12 SSW 1021,0 35 0,0
14.08.2017 15:00:00 20,0 10,5 21 12 SSW 1020,9 31 0,0
14.08.2017 14:00:00 19,2 8,3 18 10 SSW 1020,5 32 0,0
14.08.2017 13:00:00 19,4 6,0 18 10 WSW 1020,0 45 0,0
14.08.2017 12:00:00 18,3 6,2 16 8 W 1019,7 37 0,0
14.08.2017 11:00:00 17,6 7,5 14 7 W 1019,1 38 0,0
14.08.2017 10:00:00 16,5 9,7 9 5 W 1018,5 34 0,0
14.08.2017 09:00:00 14,3 10,1 9 5 WNW 1017,9 29 0,0
14.08.2017 08:00:00 12,3 9,5 10 5 WNW 1017,4 33 0,0
14.08.2017 07:00:00 10,6 9,3 9 5 W 1016,6 29 0,0
14.08.2017 06:00:00 9,3 8,9 6 4 WNW 1015,8 18 0,0
14.08.2017 05:00:00 9,4 9,1 6 4 WNW 1015,0 13 0,0
14.08.2017 04:00:00 10,9 9,7 7 4 W 1014,4 26 0,0
14.08.2017 03:00:00 12,6 9,7 13 7 WNW 1013,6 32 0,0
14.08.2017 02:00:00 13,4 9,9 11 6 WNW 1012,8 30 0,0
14.08.2017 01:00:00 14,7 12,3 14 8 NW 1011,8 34 0,0
14.08.2017 00:00:00 15,2 12,6 13 7 W 1010,8 36 0,0
13.08.2017 23:00:00 15,5 13,5 11 6 W 1009,9 32 0,0
13.08.2017 22:00:00 16,0 13,8 14 7 WSW 1009,0 32 0,0
13.08.2017 21:00:00 16,8 13,7 16 9 SSW 1007,9 34 0,0
13.08.2017 20:00:00 17,9 13,7 19 10 SW 1007,5 30 0,0
13.08.2017 19:00:00 18,0 14,5 22 12 SW 1007,3 31 0,1
13.08.2017 18:00:00 19,3 13,9 29 16 SW 1007,1 31 0,0
13.08.2017 17:00:00 20,2 14,2 21 11 SW 1006,9 34 0,0
13.08.2017 16:00:00 19,9 14,4 27 14 SW 1006,9 28 0,0
13.08.2017 15:00:00 19,5 13,7 24 13 SW 1006,7 30 0,0
13.08.2017 14:00:00 19,4 13,5 29 16 SW 1006,6 37 0,0
13.08.2017 13:00:00 19,1 13,7 22 12 SW 1006,3 31 0,0
13.08.2017 12:00:00 18,4 14,0 27 15 WSW 1005,7 33 0,0
13.08.2017 11:00:00 18,2 15,9 21 11 SW 1004,8 22 0,4
13.08.2017 10:00:00 17,1 15,5 16 9 S 1004,3 20 0,0
13.08.2017 09:00:00 17,1 15,6 19 10 S 1004,4 18 0,0
13.08.2017 08:00:00 16,7 15,3 21 11 SSW 1004,3 16 0,0
13.08.2017 07:00:00 16,7 15,4 19 11 S 1004,5 15 0,0
13.08.2017 06:00:00 16,5 15,3 17 9 S 1004,4 15 0,0
13.08.2017 05:00:00 17,1 15,5 19 11 SSW 1004,3 17 0,0
13.08.2017 04:00:00 17,3 15,3 20 11 SSW 1004,2 19 0,0
13.08.2017 03:00:00 17,8 17,1 21 12 SSW 1004,3 13 0,0
13.08.2017 02:00:00 17,5 17,0 15 8 SSW 1004,9 13 0,0
13.08.2017 01:00:00 17,5 16,9 16 9 SSW 1005,5 16 0,0
13.08.2017 00:00:00 17,2 16,8 14 7 SSW 1005,6 10 0,0
12.08.2017 23:00:00 16,9 16,6 16 9 S 1006,3 7 0,0
12.08.2017 22:00:00 16,6 16,4 12 7 S 1005,2 4,6 0,2
12.08.2017 21:00:00 16,7 16,4 12 6 SE 1004,6 6 0,0
12.08.2017 20:00:00 17,0 16,7 16 9 SE 1006,6 6 14,2
12.08.2017 19:00:00 21,9 18,6 16 8 SE 1006,6 2,1 0,0
12.08.2017 18:00:00 22,7 18,7 13 7 SE 1006,2 20 0,0
12.08.2017 17:00:00 23,5 19,0 13 7 ESE 1006,9 20 0,0
12.08.2017 16:00:00 23,7 18,9 9 5 SSE 1007,9 20 0,0
12.08.2017 15:00:00 22,0 18,3 9 5 SE 1008,9 22 0,0
12.08.2017 14:00:00 21,6 17,7 10 6 SE 1009,4 24 0,0
12.08.2017 13:00:00 20,7 17,0 14 7 SE 1009,1 23 0,0
12.08.2017 12:00:00 20,3 16,6 13 7 ESE 1009,0 24 0,0
12.08.2017 11:00:00 19,4 16,2 15 8 SE 1009,5 23 0,0
12.08.2017 10:00:00 18,5 15,7 11 6 ESE 1009,8 25 0,0
12.08.2017 09:00:00 17,8 15,2 6 4 SE 1010,8 28 0,0
12.08.2017 08:00:00 16,5 15,5 11 6 SSE 1011,8 22 0,0
12.08.2017 07:00:00 14,9 14,8 9 5 SE 1011,5 8 0,0
12.08.2017 06:00:00 14,1 13,9 5 3 S 1012,0 3,0 0,0
12.08.2017 05:00:00 14,9 14,7 8 5 SSE 1012,3 6 0,0
12.08.2017 04:00:00 15,2 15,1 13 7 S 1013,2 7 0,0
12.08.2017 03:00:00 14,2 14,1 9 5 SSE 1013,0 5 0,0
12.08.2017 02:00:00 13,7 13,6 9 5 S 1013,2 3,5 0,0

tt = temperature
td = dewpoint
ff = wind speed
dd = wind direction
ppp = reduced air pressure
vv = visibility
rr = precipitation

Next stations